Wetterdaten: Donnerstag, 31.03.2016
Datum Zeit Temp. A. Mod.Schuppen Aussentemp2 Feuchte A. Luftdruck Regen Wind Richtung Richtung Sonnenschein Helligkeit Solar
31.03.2016 00:04 8,6 C 7,1 C 9,9 C 76 % 1010,8 hPa 0,0 l/m 5,9 km/h (2 Bft) W 270 0 min 0 lux 0 W/m
31.03.2016 00:09 8,6 C 7,2 C 9,7 C 77 % 1010,8 hPa 0,0 l/m 6,0 km/h (2 Bft) W-SW 250 0 min 0 lux 0 W/m
31.03.2016 00:14 8,5 C 7,2 C 9,9 C 77 % 1010,8 hPa 0,0 l/m 5,4 km/h (2 Bft) W-SW 250 0 min 0 lux 0 W/m
31.03.2016 00:20 8,5 C 7,0 C 10,0 C 76 % 1010,8 hPa 0,0 l/m 3,5 km/h (1 Bft) W-SW 250 0 min 0 lux 0 W/m
31.03.2016 00:24 8,4 C 6,9 C 10,0 C 76 % 1010,8 hPa 0,0 l/m 0,1 km/h (0 Bft) W-SW 250 0 min 0 lux 0 W/m
31.03.2016 00:29 8,4 C 6,8 C 10,0 C 76 % 1010,8 hPa 0,0 l/m 0,0 km/h (0 Bft) W-SW 250 0 min 0 lux 0 W/m
31.03.2016 00:34 8,4 C 6,8 C 9,7 C 78 % 1010,8 hPa 0,0 l/m 0,0 km/h (0 Bft) W-SW 250 0 min 0 lux 0 W/m
31.03.2016 00:39 8,2 C 6,9 C 9,6 C 79 % 1010,8 hPa 0,0 l/m 12,0 km/h (2 Bft) W-SW 250 0 min 0 lux 0 W/m
31.03.2016 00:44 8,1 C 6,9 C 9,5 C 80 % 1010,8 hPa 0,0 l/m 17,4 km/h (3 Bft) W-SW22.5 250 0 min 0 lux 0 W/m
31.03.2016 00:50 8,0 C 6,9 C 9,3 C 80 % 1010,8 hPa 0,1 l/m 14,3 km/h (3 Bft) W-SW22.5 250 0 min 0 lux 0 W/m
31.03.2016 00:54 8,0 C 6,8 C 9,3 C 79 % 1010,8 hPa 0,0 l/m 13,8 km/h (3 Bft) W-SW22.5 245 0 min 0 lux 0 W/m
31.03.2016 00:59 7,8 C 6,7 C 9,3 C 79 % 1010,8 hPa 0,0 l/m 11,8 km/h (2 Bft) W-SW22.5 240 0 min 0 lux 0 W/m
31.03.2016 01:04 7,8 C 6,6 C 9,3 C 80 % 1010,8 hPa 0,0 l/m 9,4 km/h (2 Bft) SW 235 0 min 0 lux 0 W/m
31.03.2016 01:09 7,6 C 6,5 C 9,3 C 81 % 1010,8 hPa 0,0 l/m 8,0 km/h (2 Bft) W-SW 240 0 min 0 lux 0 W/m
31.03.2016 01:14 7,6 C 6,5 C 9,4 C 80 % 1010,8 hPa 0,0 l/m 5,7 km/h (2 Bft) SW 235 0 min 0 lux 0 W/m
31.03.2016 01:19 7,6 C 6,3 C 9,5 C 80 % 1010,8 hPa 0,0 l/m 4,2 km/h (1 Bft) SW 230 0 min 0 lux 0 W/m
31.03.2016 01:24 7,6 C 6,3 C 9,8 C 80 % 1010,8 hPa 0,1 l/m 0,0 km/h (0 Bft) SW 235 0 min 0 lux 0 W/m
31.03.2016 01:29 7,6 C 6,3 C 9,8 C 80 % 1010,8 hPa 0,0 l/m 5,6 km/h (2 Bft) SW 230 0 min 0 lux 0 W/m
31.03.2016 01:35 7,6 C 6,3 C 9,8 C 80 % 1010,8 hPa 0,0 l/m 7,2 km/h (2 Bft) S-SW 195 0 min 0 lux 0 W/m
31.03.2016 01:39 7,6 C 6,2 C 9,6 C 80 % 1010,8 hPa 0,0 l/m 5,7 km/h (2 Bft) S 190 0 min 0 lux 0 W/m
31.03.2016 01:44 7,6 C 6,2 C 9,4 C 80 % 1010,8 hPa 0,0 l/m 13,5 km/h (3 Bft) S-SW45 205 0 min 0 lux 0 W/m
31.03.2016 01:49 7,6 C 6,4 C 9,1 C 81 % 1010,8 hPa 0,0 l/m 14,8 km/h (3 Bft) W-SW22.5 245 0 min 0 lux 0 W/m
31.03.2016 01:54 7,5 C 6,4 C 9,1 C 81 % 1010,8 hPa 0,0 l/m 10,5 km/h (2 Bft) SW22.5 230 0 min 0 lux 0 W/m
31.03.2016 01:59 7,4 C 6,3 C 9,1 C 82 % 1010,8 hPa 0,0 l/m 8,7 km/h (2 Bft) SW 235 0 min 0 lux 0 W/m
31.03.2016 02:04 7,4 C 6,2 C 9,4 C 83 % 1010,8 hPa 0,0 l/m 7,7 km/h (2 Bft) W-SW 240 0 min 0 lux 0 W/m
31.03.2016 02:09 7,3 C 6,1 C 9,6 C 83 % 1010,8 hPa 0,0 l/m 3,9 km/h (1 Bft) W-SW 240 0 min 0 lux 0 W/m
31.03.2016 02:14 7,3 C 6,2 C 9,6 C 83 % 1010,8 hPa 0,0 l/m 1,2 km/h (1 Bft) W-SW 240 0 min 0 lux 0 W/m
31.03.2016 02:19 7,3 C 6,1 C 9,6 C 82 % 1010,8 hPa 0,0 l/m 4,1 km/h (1 Bft) W-SW 240 0 min 0 lux 0 W/m
31.03.2016 02:24 7,3 C 6,2 C 9,6 C 81 % 1010,8 hPa 0,0 l/m 5,7 km/h (2 Bft) W-SW 250 0 min 0 lux 0 W/m
31.03.2016 02:29 7,3 C 6,2 C 9,5 C 81 % 1010,8 hPa 0,0 l/m 7,1 km/h (2 Bft) W 265 0 min 0 lux 0 W/m
31.03.2016 02:34 7,3 C 6,2 C 9,5 C 81 % 1010,8 hPa 0,0 l/m 6,8 km/h (2 Bft) W 275 0 min 0 lux 0 W/m
31.03.2016 02:39 7,4 C 6,1 C 9,5 C 81 % 1010,8 hPa 0,0 l/m 5,7 km/h (2 Bft) W 275 0 min 0 lux 0 W/m
31.03.2016 02:44 7,3 C 6,1 C 9,4 C 82 % 1010,8 hPa 0,0 l/m 6,7 km/h (2 Bft) W 270 0 min 0 lux 0 W/m
31.03.2016 02:50 7,2 C 6,1 C 9,5 C 82 % 1010,8 hPa 0,0 l/m 6,3 km/h (2 Bft) W 260 0 min 0 lux 0 W/m
31.03.2016 02:54 7,2 C 6,1 C 9,7 C 82 % 1010,8 hPa 0,1 l/m 0,0 km/h (0 Bft) W 260 0 min 0 lux 0 W/m
31.03.2016 02:59 7,2 C 6,1 C 9,6 C 82 % 1010,8 hPa 0,0 l/m 0,0 km/h (0 Bft) W 260 0 min 0 lux 0 W/m
31.03.2016 03:04 7,2 C 6,1 C 9,7 C 82 % 1010,8 hPa 0,0 l/m 0,0 km/h (0 Bft) W 260 0 min 0 lux 0 W/m
31.03.2016 03:10 7,3 C 6,1 C 9,7 C 81 % 1010,8 hPa 0,1 l/m 0,0 km/h (0 Bft) W 260 0 min 0 lux 0 W/m
31.03.2016 03:14 7,2 C 6,1 C 9,6 C 81 % 1010,8 hPa 0,0 l/m 0,0 km/h (0 Bft) W 260 0 min 0 lux 0 W/m
31.03.2016 03:19 7,2 C 6,0 C 9,6 C 81 % 1010,8 hPa 0,0 l/m 0,0 km/h (0 Bft) W 260 0 min 0 lux 0 W/m
31.03.2016 03:24 7,2 C 5,9 C 9,6 C 81 % 1010,8 hPa 0,0 l/m 0,0 km/h (0 Bft) W 260 0 min 0 lux 0 W/m
31.03.2016 03:29 7,2 C 5,9 C 9,6 C 81 % 1010,8 hPa 0,1 l/m 0,0 km/h (0 Bft) W 260 0 min 0 lux 0 W/m
31.03.2016 03:34 7,2 C 5,8 C 9,6 C 81 % 1010,8 hPa 0,0 l/m 0,0 km/h (0 Bft) W 260 0 min 0 lux 0 W/m
31.03.2016 03:39 7,2 C 5,8 C 9,6 C 81 % 1010,8 hPa 0,0 l/m 0,0 km/h (0 Bft) W 260 0 min 0 lux 0 W/m
31.03.2016 03:44 7,1 C 5,7 C 9,6 C 81 % 1010,8 hPa 0,0 l/m 0,0 km/h (0 Bft) W 260 0 min 0 lux 0 W/m
31.03.2016 03:49 7,1 C 5,7 C 9,6 C 81 % 1010,8 hPa 0,0 l/m 0,0 km/h (0 Bft) W 260 0 min 0 lux 0 W/m
31.03.2016 03:54 7,0 C 5,6 C 9,6 C 81 % 1010,8 hPa 0,0 l/m 0,0 km/h (0 Bft) W 260 0 min 0 lux 0 W/m
31.03.2016 03:59 7,0 C 5,6 C 9,5 C 82 % 1010,8 hPa 0,0 l/m 0,0 km/h (0 Bft) W 260 0 min 0 lux 0 W/m
31.03.2016 04:04 7,0 C 5,6 C 9,5 C 82 % 1010,8 hPa 0,0 l/m 0,0 km/h (0 Bft) W 260 0 min 0 lux 0 W/m
31.03.2016 04:09 7,1 C 5,6 C 9,5 C 82 % 1010,8 hPa 0,0 l/m 0,0 km/h (0 Bft) W 260 0 min 0 lux 0 W/m
31.03.2016 04:14 7,1 C 5,6 C 9,6 C 82 % 1010,8 hPa 0,0 l/m 0,0 km/h (0 Bft) W 260 0 min 0 lux 0 W/m
31.03.2016 04:19 7,1 C 5,7 C 9,4 C 82 % 1010,8 hPa 0,0 l/m 0,0 km/h (0 Bft) W 260 0 min 0 lux 0 W/m
31.03.2016 04:24 7,1 C 5,7 C 9,4 C 82 % 1010,8 hPa 0,0 l/m 0,0 km/h (0 Bft) W 260 0 min 0 lux 0 W/m
31.03.2016 04:29 7,1 C 5,7 C 9,5 C 82 % 1010,8 hPa 0,0 l/m 0,0 km/h (0 Bft) W 260 0 min 0 lux 0 W/m
31.03.2016 04:34 7,1 C 5,7 C 9,4 C 82 % 1010,8 hPa 0,0 l/m 0,0 km/h (0 Bft) W 260 0 min 0 lux 0 W/m
31.03.2016 04:39 7,0 C 5,6 C 9,4 C 82 % 1010,8 hPa 0,1 l/m 0,0 km/h (0 Bft) W 260 0 min 0 lux 0 W/m
31.03.2016 04:44 7,0 C 5,5 C 9,4 C 82 % 1010,8 hPa 0,0 l/m 0,0 km/h (0 Bft) W 260 0 min 0 lux 0 W/m
31.03.2016 04:50 7,0 C 5,5 C 9,5 C 82 % 1010,8 hPa 0,0 l/m 4,8 km/h (1 Bft) W 260 0 min 0 lux 0 W/m
31.03.2016 04:54 7,0 C 5,5 C 9,4 C 82 % 1010,8 hPa 0,0 l/m 5,6 km/h (2 Bft) W 260 0 min 0 lux 0 W/m
31.03.2016 04:59 7,0 C 5,6 C 9,5 C 82 % 1010,8 hPa 0,0 l/m 5,1 km/h (1 Bft) W 265 0 min 0 lux 0 W/m
31.03.2016 05:04 7,0 C 5,6 C 9,5 C 82 % 1010,8 hPa 0,0 l/m 0,0 km/h (0 Bft) W 265 0 min 0 lux 0 W/m
31.03.2016 05:09 7,0 C 5,5 C 9,5 C 82 % 1010,8 hPa 0,0 l/m 0,0 km/h (0 Bft) W 260 0 min 0 lux 0 W/m
31.03.2016 05:14 7,0 C 5,5 C 9,5 C 82 % 1010,8 hPa 0,0 l/m 0,0 km/h (0 Bft) W 260 0 min 0 lux 0 W/m
31.03.2016 05:19 7,0 C 5,5 C 9,5 C 82 % 1010,8 hPa 0,0 l/m 0,0 km/h (0 Bft) W 260 0 min 0 lux 0 W/m
31.03.2016 05:24 7,1 C 5,6 C 9,5 C 83 % 1010,8 hPa 0,0 l/m 0,0 km/h (0 Bft) W 260 0 min 0 lux 0 W/m
31.03.2016 05:29 7,1 C 5,7 C 9,4 C 83 % 1010,8 hPa 0,0 l/m 0,3 km/h (0 Bft) W 260 0 min 0 lux 0 W/m
31.03.2016 05:35 7,0 C 5,7 C 9,4 C 82 % 1010,8 hPa 0,0 l/m 0,0 km/h (0 Bft) W 260 0 min 0 lux 0 W/m
31.03.2016 05:39 7,0 C 5,6 C 9,4 C 82 % 1010,8 hPa 0,0 l/m 0,1 km/h (0 Bft) W 260 0 min 0 lux 0 W/m
31.03.2016 05:44 7,0 C 5,5 C 9,4 C 82 % 1010,8 hPa 0,0 l/m 0,0 km/h (0 Bft) W 260 0 min 0 lux 0 W/m
31.03.2016 05:49 7,0 C 5,5 C 9,5 C 82 % 1010,8 hPa 0,0 l/m 0,0 km/h (0 Bft) W 260 0 min 0 lux 0 W/m
31.03.2016 05:54 6,9 C 5,5 C 9,4 C 82 % 1010,8 hPa 0,0 l/m 0,0 km/h (0 Bft) W 260 0 min 0 lux 0 W/m
31.03.2016 05:59 6,9 C 5,5 C 9,5 C 82 % 1010,8 hPa 0,0 l/m 0,0 km/h (0 Bft) W 260 0 min 0 lux 0 W/m
31.03.2016 06:04 7,0 C 5,5 C 9,5 C 83 % 1010,8 hPa 0,0 l/m 0,0 km/h (0 Bft) W 260 0 min 0 lux 0 W/m
31.03.2016 06:09 7,0 C 5,6 C 9,4 C 83 % 1010,8 hPa 0,0 l/m 0,0 km/h (0 Bft) W 260 0 min 0 lux 0 W/m
31.03.2016 06:14 6,9 C 5,6 C 9,5 C 83 % 1010,8 hPa 0,0 l/m 0,0 km/h (0 Bft) W 260 0 min 0 lux 0 W/m
31.03.2016 06:20 7,0 C 5,7 C 9,4 C 83 % 1010,8 hPa 0,0 l/m 4,4 km/h (1 Bft) W 260 0 min 0 lux 0 W/m
31.03.2016 06:24 7,0 C 5,8 C 9,4 C 84 % 1010,8 hPa 0,0 l/m 5,0 km/h (1 Bft) W 265 0 min 0 lux 0 W/m
31.03.2016 06:29 7,0 C 5,8 C 9,4 C 84 % 1010,8 hPa 0,0 l/m 3,3 km/h (1 Bft) W 260 0 min 0 lux 0 W/m
31.03.2016 06:34 6,9 C 5,8 C 9,4 C 84 % 1010,8 hPa 0,0 l/m 1,5 km/h (1 Bft) W 260 0 min 0 lux 0 W/m
31.03.2016 06:39 6,9 C 5,8 C 9,4 C 84 % 1010,8 hPa 0,0 l/m 4,5 km/h (1 Bft) W 260 0 min 0 lux 0 W/m
31.03.2016 06:44 6,9 C 5,8 C 9,3 C 84 % 1010,8 hPa 0,0 l/m 5,3 km/h (1 Bft) W 260 0 min 0 lux 0 W/m
31.03.2016 06:49 6,9 C 5,8 C 9,3 C 84 % 1010,8 hPa 0,0 l/m 6,8 km/h (2 Bft) N67.5 5 0 min 0 lux 0 W/m
31.03.2016 06:54 6,9 C 5,8 C 9,4 C 84 % 1010,8 hPa 0,0 l/m 6,0 km/h (2 Bft) NO22.5 40 0 min 0 lux 0 W/m
31.03.2016 06:59 6,9 C 5,8 C 9,4 C 84 % 1010,8 hPa 0,0 l/m 0,7 km/h (0 Bft) NO 35 0 min 33 lux 0 W/m
31.03.2016 07:05 6,8 C 5,7 C 9,3 C 83 % 1010,8 hPa 0,0 l/m 0,0 km/h (0 Bft) NO 40 0 min 33 lux 0 W/m
31.03.2016 07:09 6,8 C 5,7 C 9,3 C 83 % 1010,8 hPa 0,0 l/m 0,0 km/h (0 Bft) NO 40 0 min 53 lux 0 W/m
31.03.2016 07:14 6,8 C 5,7 C 9,3 C 83 % 1010,8 hPa 0,0 l/m 0,1 km/h (0 Bft) NO 40 0 min 74 lux 0 W/m
31.03.2016 07:19 6,8 C 5,8 C 9,4 C 84 % 1010,8 hPa 0,0 l/m 0,1 km/h (0 Bft) NO 40 0 min 111 lux 1 W/m
31.03.2016 07:24 6,9 C 5,9 C 9,4 C 84 % 1010,8 hPa 0,0 l/m 8,7 km/h (2 Bft) NO 40 0 min 134 lux 1 W/m
31.03.2016 07:29 7,0 C 5,9 C 9,4 C 84 % 1010,8 hPa 0,0 l/m 0,4 km/h (0 Bft) NO 40 0 min 240 lux 2 W/m
31.03.2016 07:34 7,1 C 6,0 C 9,4 C 84 % 1010,8 hPa 0,0 l/m 7,0 km/h (2 Bft) NO 40 0 min 240 lux 2 W/m
31.03.2016 07:39 7,2 C 6,0 C 9,4 C 84 % 1010,8 hPa 0,0 l/m 8,8 km/h (2 Bft) O-NO22.5 65 0 min 396 lux 3 W/m
31.03.2016 07:44 7,1 C 6,1 C 9,4 C 83 % 1010,8 hPa 0,0 l/m 5,9 km/h (2 Bft) O-NO 65 0 min 474 lux 3 W/m
31.03.2016 07:49 7,2 C 6,1 C 9,4 C 83 % 1010,8 hPa 0,0 l/m 0,0 km/h (0 Bft) O-NO 60 0 min 536 lux 4 W/m
31.03.2016 07:54 7,2 C 6,0 C 9,4 C 83 % 1010,8 hPa 0,0 l/m 0,0 km/h (0 Bft) O-NO 60 0 min 536 lux 4 W/m
31.03.2016 07:59 7,1 C 6,0 C 9,4 C 83 % 1010,8 hPa 0,0 l/m 0,0 km/h (0 Bft) O-NO 60 0 min 536 lux 4 W/m
31.03.2016 08:04 7,1 C 6,1 C 9,4 C 83 % 1010,8 hPa 0,0 l/m 0,0 km/h (0 Bft) O-NO 60 0 min 1,34 klux 9 W/m
31.03.2016 08:09 7,1 C 6,2 C 9,4 C 83 % 1010,8 hPa 0,0 l/m 0,0 km/h (0 Bft) O-NO22.5 70 0 min 1,73 klux 12 W/m
31.03.2016 08:14 7,1 C 6,4 C 9,3 C 83 % 1010,8 hPa 0,0 l/m 0,0 km/h (0 Bft) O 80 0 min 2,46 klux 17 W/m
31.03.2016 08:19 7,1 C 6,5 C 9,3 C 83 % 1010,8 hPa 0,0 l/m 0,0 km/h (0 Bft) O-NO 75 0 min 3,44 klux 24 W/m
31.03.2016 08:24 7,2 C 6,8 C 9,3 C 83 % 1010,8 hPa 0,0 l/m 0,0 km/h (0 Bft) O-NO 75 0 min 3,44 klux 24 W/m
31.03.2016 08:29 7,2 C 7,1 C 9,3 C 83 % 1010,8 hPa 0,0 l/m 0,0 km/h (0 Bft) O-NO 75 0 min 4,01 klux 27 W/m
31.03.2016 08:34 7,2 C 7,3 C 9,3 C 83 % 1010,8 hPa 0,0 l/m 0,0 km/h (0 Bft) O-NO 70 0 min 4,85 klux 33 W/m
31.03.2016 08:39 7,2 C 7,5 C 9,4 C 83 % 1010,8 hPa 0,0 l/m 0,0 km/h (0 Bft) O-NO 70 0 min 4,85 klux 33 W/m
31.03.2016 08:45 7,4 C 7,7 C 9,2 C 83 % 1010,8 hPa 0,0 l/m 0,0 km/h (0 Bft) O-NO 70 0 min 4,03 klux 28 W/m
31.03.2016 08:49 7,4 C 7,8 C 9,5 C 83 % 1010,8 hPa 0,0 l/m 0,3 km/h (0 Bft) O-NO 75 0 min 4,19 klux 29 W/m
31.03.2016 08:54 7,4 C 7,7 C 9,5 C 83 % 1010,8 hPa 0,0 l/m 0,0 km/h (0 Bft) O-NO 70 0 min 3,52 klux 24 W/m
31.03.2016 08:59 7,5 C 7,7 C 9,5 C 83 % 1010,8 hPa 0,0 l/m 0,0 km/h (0 Bft) O-NO 70 0 min 3,90 klux 27 W/m
31.03.2016 09:04 7,5 C 7,8 C 9,5 C 83 % 1010,8 hPa 0,0 l/m 0,0 km/h (0 Bft) O-NO 70 0 min 4,11 klux 28 W/m
31.03.2016 09:09 7,5 C 7,8 C 9,5 C 83 % 1010,8 hPa 0,0 l/m 0,0 km/h (0 Bft) O-NO 70 0 min 4,49 klux 31 W/m
31.03.2016 09:14 7,5 C 7,8 C 9,5 C 83 % 1010,8 hPa 0,0 l/m 4,4 km/h (1 Bft) O-NO 75 0 min 5,00 klux 34 W/m
31.03.2016 09:19 7,5 C 7,9 C 9,5 C 83 % 1010,8 hPa 0,0 l/m 9,2 km/h (2 Bft) O 80 0 min 5,00 klux 34 W/m
31.03.2016 09:24 7,5 C 8,1 C 9,5 C 83 % 1010,8 hPa 0,0 l/m 0,2 km/h (0 Bft) O-NO 70 0 min 5,92 klux 40 W/m
31.03.2016 09:30 7,6 C 8,4 C 9,5 C 82 % 1011,8 hPa 0,0 l/m 0,0 km/h (0 Bft) O-NO 70 0 min 6,42 klux 44 W/m
31.03.2016 09:34 7,7 C 8,9 C 9,5 C 82 % 1011,8 hPa 0,0 l/m 0,0 km/h (0 Bft) O-NO 70 0 min 7,30 klux 50 W/m
31.03.2016 09:39 7,8 C 9,5 C 9,5 C 82 % 1011,8 hPa 0,0 l/m 0,0 km/h (0 Bft) O-NO 70 0 min 7,30 klux 50 W/m
31.03.2016 09:44 7,9 C 9,6 C 9,5 C 81 % 1011,8 hPa 0,0 l/m 0,0 km/h (0 Bft) O-NO 70 0 min 6,98 klux 48 W/m
31.03.2016 09:49 7,9 C 9,7 C 9,5 C 81 % 1011,8 hPa 0,0 l/m 0,0 km/h (0 Bft) O-NO 70 0 min 7,75 klux 53 W/m
31.03.2016 09:54 8,0 C 10,1 C 9,5 C 81 % 1011,8 hPa 0,0 l/m 0,0 km/h (0 Bft) O-NO 70 0 min 8,58 klux 59 W/m
31.03.2016 09:59 8,0 C 10,1 C 9,5 C 80 % 1011,8 hPa 0,0 l/m 0,3 km/h (0 Bft) O-NO 70 0 min 9,5 klux 65 W/m
31.03.2016 10:04 8,0 C 10,4 C 9,5 C 79 % 1011,8 hPa 0,0 l/m 6,5 km/h (2 Bft) O-NO 70 0 min 10,5 klux 72 W/m
31.03.2016 10:09 8,1 C 10,9 C 9,5 C 79 % 1011,8 hPa 0,0 l/m 0,0 km/h (0 Bft) O-NO 65 0 min 11,0 klux 75 W/m
31.03.2016 10:15 8,1 C 11,1 C 9,5 C 79 % 1011,8 hPa 0,0 l/m 0,0 km/h (0 Bft) O-NO 65 0 min 11,0 klux 75 W/m
31.03.2016 10:19 8,2 C 11,5 C 9,6 C 79 % 1011,8 hPa 0,0 l/m 0,0 km/h (0 Bft) O-NO 70 0 min 11,0 klux 75 W/m
31.03.2016 10:24 8,4 C 11,5 C 9,6 C 79 % 1011,8 hPa 0,0 l/m 2,6 km/h (1 Bft) N-NO45 20 0 min 11,4 klux 78 W/m
31.03.2016 10:29 8,4 C 11,4 C 9,6 C 78 % 1011,8 hPa 0,0 l/m 6,7 km/h (2 Bft) N22.5 5 0 min 12,3 klux 84 W/m
31.03.2016 10:34 8,5 C 11,5 C 9,5 C 78 % 1011,8 hPa 0,0 l/m 7,2 km/h (2 Bft) N45 10 0 min 12,3 klux 84 W/m
31.03.2016 10:39 8,6 C 11,4 C 9,3 C 78 % 1011,8 hPa 0,0 l/m 8,5 km/h (2 Bft) N22.5 355 0 min 11,9 klux 81 W/m
31.03.2016 10:44 8,6 C 11,5 C 9,4 C 78 % 1011,8 hPa 0,0 l/m 4,8 km/h (1 Bft) N 350 0 min 12,4 klux 85 W/m
31.03.2016 10:49 8,8 C 11,6 C 9,4 C 78 % 1011,8 hPa 0,0 l/m 8,7 km/h (2 Bft) N22.5 360 0 min 12,4 klux 85 W/m
31.03.2016 10:54 8,7 C 11,8 C 9,4 C 77 % 1011,8 hPa 0,0 l/m 8,1 km/h (2 Bft) N22.5 5 0 min 12,4 klux 85 W/m
31.03.2016 10:59 8,8 C 11,6 C 9,4 C 74 % 1011,8 hPa 0,0 l/m 12,7 km/h (3 Bft) NO22.5 35 0 min 12,8 klux 88 W/m
31.03.2016 11:04 8,8 C 11,7 C 9,4 C 74 % 1011,8 hPa 0,0 l/m 15,0 km/h (3 Bft) N-NO67.5 20 0 min 13,2 klux 90 W/m
31.03.2016 11:09 8,8 C 11,7 C 9,3 C 71 % 1011,8 hPa 0,0 l/m 16,7 km/h (3 Bft) NO22.5 35 0 min 14,3 klux 98 W/m
31.03.2016 11:14 8,9 C 11,9 C 9,3 C 72 % 1011,8 hPa 0,0 l/m 16,5 km/h (3 Bft) NO22.5 40 0 min 14,3 klux 98 W/m
31.03.2016 11:19 8,9 C 12,3 C 9,3 C 71 % 1011,8 hPa 0,0 l/m 15,9 km/h (3 Bft) N-NO22.5 20 0 min 17,6 klux 120 W/m
31.03.2016 11:24 9,0 C 12,5 C 9,3 C 71 % 1011,8 hPa 0,0 l/m 16,9 km/h (3 Bft) N-NO22.5 25 0 min 16,2 klux 111 W/m
31.03.2016 11:29 9,1 C 12,6 C 9,3 C 70 % 1011,8 hPa 0,0 l/m 18,6 km/h (3 Bft) NO22.5 40 0 min 17,9 klux 122 W/m
31.03.2016 11:34 9,1 C 12,7 C 9,3 C 69 % 1011,8 hPa 0,0 l/m 18,6 km/h (3 Bft) NO22.5 40 0 min 17,9 klux 122 W/m
31.03.2016 11:39 9,2 C 12,8 C 9,3 C 68 % 1011,8 hPa 0,0 l/m 23,2 km/h (4 Bft) N-NO45 30 0 min 19,8 klux 135 W/m
31.03.2016 11:44 9,2 C 13,0 C 9,3 C 68 % 1011,8 hPa 0,0 l/m 24,3 km/h (4 Bft) NO22.5 45 0 min 18,9 klux 129 W/m
31.03.2016 11:49 9,2 C 13,2 C 9,4 C 67 % 1011,8 hPa 0,0 l/m 20,1 km/h (4 Bft) NO45 40 0 min 19,6 klux 134 W/m
31.03.2016 11:55 9,2 C 13,2 C 9,3 C 67 % 1011,8 hPa 0,0 l/m 28,5 km/h (5 Bft) N-NO45 30 0 min 19,7 klux 135 W/m
31.03.2016 11:59 9,2 C 13,2 C 9,3 C 63 % 1011,8 hPa 0,0 l/m 30,3 km/h (5 Bft) NO22.5 50 0 min 20,3 klux 139 W/m
31.03.2016 12:04 9,3 C 13,5 C 9,4 C 63 % 1011,8 hPa 0,0 l/m 29,2 km/h (5 Bft) NO45 50 0 min 20,3 klux 139 W/m
31.03.2016 12:10 9,4 C 13,4 C 9,3 C 63 % 1011,8 hPa 0,0 l/m 25,3 km/h (4 Bft) NO22.5 50 0 min 21,4 klux 146 W/m
31.03.2016 12:14 9,4 C 13,4 C 9,4 C 63 % 1011,8 hPa 0,0 l/m 29,5 km/h (5 Bft) NO22.5 40 0 min 24,6 klux 168 W/m
31.03.2016 12:19 9,5 C 13,8 C 9,4 C 62 % 1011,8 hPa 0,0 l/m 27,6 km/h (5 Bft) NO22.5 45 0 min 21,1 klux 144 W/m
31.03.2016 12:24 9,5 C 14,1 C 9,4 C 61 % 1011,8 hPa 0,0 l/m 28,2 km/h (5 Bft) NO45 45 0 min 23,4 klux 160 W/m
31.03.2016 12:29 9,6 C 14,2 C 9,4 C 60 % 1011,8 hPa 0,0 l/m 33,1 km/h (5 Bft) NO22.5 55 0 min 22,1 klux 151 W/m
31.03.2016 12:34 9,7 C 14,5 C 9,4 C 60 % 1011,8 hPa 0,0 l/m 32,2 km/h (5 Bft) NO45 45 0 min 22,6 klux 155 W/m
31.03.2016 12:39 9,8 C 15,2 C 9,5 C 60 % 1011,8 hPa 0,0 l/m 24,8 km/h (4 Bft) NO45 55 0 min 23,3 klux 159 W/m
31.03.2016 12:44 9,8 C 15,4 C 9,5 C 59 % 1011,8 hPa 0,0 l/m 22,5 km/h (4 Bft) O45 80 0 min 21,8 klux 149 W/m
31.03.2016 12:49 9,8 C 14,9 C 9,5 C 59 % 1011,8 hPa 0,0 l/m 25,0 km/h (4 Bft) O-NO45 70 0 min 20,9 klux 143 W/m
31.03.2016 12:54 9,7 C 14,7 C 9,5 C 59 % 1011,8 hPa 0,0 l/m 17,6 km/h (3 Bft) O22.5 80 0 min 20,2 klux 138 W/m
31.03.2016 12:59 9,6 C 13,8 C 9,4 C 60 % 1011,8 hPa 0,0 l/m 23,5 km/h (4 Bft) O67.5 80 0 min 18,0 klux 123 W/m
31.03.2016 13:04 9,6 C 13,8 C 9,5 C 60 % 1011,8 hPa 0,0 l/m 18,6 km/h (3 Bft) O-NO45 60 0 min 19,0 klux 130 W/m
31.03.2016 13:09 9,7 C 14,1 C 9,5 C 59 % 1011,8 hPa 0,0 l/m 21,6 km/h (4 Bft) O45 85 0 min 19,0 klux 130 W/m
31.03.2016 13:14 9,7 C 14,4 C 9,4 C 60 % 1011,8 hPa 0,0 l/m 21,5 km/h (4 Bft) O67.5 100 0 min 19,8 klux 135 W/m
31.03.2016 13:20 9,7 C 14,4 C 9,5 C 59 % 1011,8 hPa 0,0 l/m 18,0 km/h (3 Bft) O67.5 95 0 min 19,1 klux 131 W/m
31.03.2016 13:24 9,7 C 14,3 C 9,5 C 58 % 1011,8 hPa 0,0 l/m 16,6 km/h (3 Bft) O22.5 80 0 min 18,9 klux 129 W/m
31.03.2016 13:29 9,7 C 14,5 C 9,5 C 58 % 1011,8 hPa 0,0 l/m 18,6 km/h (3 Bft) O67.5 90 0 min 21,3 klux 146 W/m
31.03.2016 13:34 9,8 C 14,8 C 9,5 C 58 % 1011,8 hPa 0,0 l/m 22,0 km/h (4 Bft) O45 90 0 min 23,1 klux 158 W/m
31.03.2016 13:39 10,0 C 15,6 C 9,5 C 57 % 1011,8 hPa 0,0 l/m 22,0 km/h (4 Bft) O22.5 95 0 min 24,1 klux 165 W/m
31.03.2016 13:45 10,0 C 15,6 C 9,6 C 57 % 1011,8 hPa 0,0 l/m 19,0 km/h (3 Bft) O-NO22.5 70 0 min 24,3 klux 166 W/m
31.03.2016 13:49 10,2 C 16,9 C 9,5 C 57 % 1011,8 hPa 0,0 l/m 17,1 km/h (3 Bft) O45 100 0 min 23,9 klux 163 W/m
31.03.2016 13:54 10,2 C 16,6 C 9,6 C 58 % 1011,8 hPa 0,0 l/m 15,3 km/h (3 Bft) O45 80 0 min 22,0 klux 150 W/m
31.03.2016 13:59 10,3 C 16,1 C 9,6 C 56 % 1011,8 hPa 0,0 l/m 20,6 km/h (4 Bft) O-NO45 75 0 min 20,4 klux 140 W/m
31.03.2016 14:04 10,2 C 15,7 C 9,6 C 54 % 1011,8 hPa 0,0 l/m 15,8 km/h (3 Bft) O45 90 0 min 19,5 klux 133 W/m
31.03.2016 14:09 10,2 C 15,5 C 9,6 C 55 % 1011,8 hPa 0,0 l/m 14,1 km/h (3 Bft) O45 80 0 min 17,3 klux 118 W/m
31.03.2016 14:14 10,3 C 14,6 C 9,6 C 56 % 1011,8 hPa 0,0 l/m 14,6 km/h (3 Bft) O-NO45 70 0 min 17,3 klux 118 W/m
31.03.2016 14:19 10,2 C 14,1 C 9,6 C 55 % 1011,8 hPa 0,0 l/m 17,2 km/h (3 Bft) NO45 50 0 min 16,1 klux 110 W/m
31.03.2016 14:24 10,2 C 14,0 C 9,6 C 56 % 1011,8 hPa 0,0 l/m 15,3 km/h (3 Bft) N-NO22.5 20 0 min 16,1 klux 110 W/m
31.03.2016 14:30 10,1 C 13,6 C 9,6 C 55 % 1011,8 hPa 0,0 l/m 17,5 km/h (3 Bft) NO22.5 40 0 min 15,1 klux 103 W/m
31.03.2016 14:34 10,1 C 13,4 C 9,6 C 55 % 1011,8 hPa 0,0 l/m 19,5 km/h (3 Bft) N45 10 0 min 16,0 klux 109 W/m
31.03.2016 14:39 10,1 C 13,5 C 9,7 C 55 % 1011,8 hPa 0,0 l/m 25,8 km/h (4 Bft) NO45 35 0 min 16,9 klux 116 W/m
31.03.2016 14:44 10,1 C 13,3 C 9,6 C 55 % 1011,8 hPa 0,0 l/m 17,3 km/h (3 Bft) N-NO22.5 15 0 min 17,5 klux 120 W/m
31.03.2016 14:49 10,1 C 13,5 C 9,7 C 55 % 1011,8 hPa 0,0 l/m 21,3 km/h (4 Bft) NO45 55 0 min 17,3 klux 118 W/m
31.03.2016 14:54 10,2 C 12,4 C 9,6 C 56 % 1011,8 hPa 0,0 l/m 23,4 km/h (4 Bft) NO45 35 0 min 17,7 klux 121 W/m
31.03.2016 14:59 10,0 C 12,1 C 9,6 C 57 % 1011,8 hPa 0,0 l/m 19,9 km/h (4 Bft) O-NO22.5 60 0 min 17,5 klux 120 W/m
31.03.2016 15:04 9,9 C 11,2 C 9,6 C 58 % 1011,8 hPa 0,0 l/m 17,0 km/h (3 Bft) NO45 40 0 min 17,5 klux 120 W/m
31.03.2016 15:09 9,9 C 11,1 C 9,6 C 58 % 1011,8 hPa 0,0 l/m 22,1 km/h (4 Bft) O-NO45 60 0 min 17,6 klux 120 W/m
31.03.2016 15:15 9,9 C 11,4 C 9,6 C 57 % 1011,8 hPa 0,0 l/m 26,6 km/h (4 Bft) NO22.5 50 0 min 19,4 klux 133 W/m
31.03.2016 15:19 9,8 C 11,9 C 9,6 C 57 % 1011,8 hPa 0,0 l/m 27,7 km/h (5 Bft) NO45 40 0 min 20,8 klux 142 W/m
31.03.2016 15:24 9,9 C 12,7 C 9,6 C 55 % 1011,8 hPa 0,0 l/m 36,8 km/h (5 Bft) NO22.5 55 0 min 19,4 klux 133 W/m
31.03.2016 15:29 9,9 C 13,1 C 9,6 C 56 % 1011,8 hPa 0,0 l/m 22,4 km/h (4 Bft) NO22.5 50 0 min 17,0 klux 116 W/m
31.03.2016 15:34 10,0 C 13,2 C 9,7 C 56 % 1011,8 hPa 0,0 l/m 25,8 km/h (4 Bft) NO22.5 45 0 min 16,2 klux 111 W/m
31.03.2016 15:39 10,0 C 13,3 C 9,6 C 56 % 1010,8 hPa 0,0 l/m 27,7 km/h (5 Bft) NO45 45 0 min 14,6 klux 100 W/m
31.03.2016 15:44 9,9 C 13,1 C 9,7 C 53 % 1010,8 hPa 0,0 l/m 29,6 km/h (5 Bft) NO67.5 55 0 min 18,9 klux 129 W/m
31.03.2016 15:49 10,0 C 13,4 C 9,6 C 52 % 1010,8 hPa 0,0 l/m 30,7 km/h (5 Bft) NO45 50 0 min 19,3 klux 132 W/m
31.03.2016 15:54 10,1 C 13,5 C 9,7 C 51 % 1010,8 hPa 0,0 l/m 29,3 km/h (5 Bft) NO22.5 55 0 min 18,3 klux 125 W/m
31.03.2016 15:59 10,1 C 13,5 C 9,7 C 51 % 1010,8 hPa 0,0 l/m 31,9 km/h (5 Bft) NO22.5 55 0 min 18,3 klux 125 W/m
31.03.2016 16:04 10,2 C 13,8 C 9,7 C 52 % 1010,8 hPa 0,0 l/m 31,9 km/h (5 Bft) NO22.5 55 0 min 12,6 klux 86 W/m
31.03.2016 16:09 10,2 C 13,4 C 9,7 C 52 % 1010,8 hPa 0,0 l/m 20,5 km/h (4 Bft) O45 90 0 min 12,6 klux 86 W/m
31.03.2016 16:14 10,2 C 13,2 C 9,7 C 53 % 1010,8 hPa 0,0 l/m 19,1 km/h (3 Bft) O-NO45 60 0 min 10,0 klux 68 W/m
31.03.2016 16:19 10,2 C 12,6 C 9,7 C 51 % 1010,8 hPa 0,0 l/m 24,0 km/h (4 Bft) O-NO45 70 0 min 9,2 klux 63 W/m
31.03.2016 16:24 10,2 C 12,3 C 9,7 C 52 % 1010,8 hPa 0,0 l/m 17,5 km/h (3 Bft) O-NO45 65 0 min 9,1 klux 62 W/m
31.03.2016 16:29 10,2 C 12,0 C 9,7 C 52 % 1010,8 hPa 0,0 l/m 30,3 km/h (5 Bft) O-NO45 65 0 min 10,0 klux 68 W/m
31.03.2016 16:34 10,2 C 12,0 C 9,6 C 54 % 1010,8 hPa 0,0 l/m 25,5 km/h (4 Bft) O-NO67.5 65 0 min 10,3 klux 70 W/m
31.03.2016 16:39 10,2 C 11,9 C 9,6 C 54 % 1010,8 hPa 0,0 l/m 28,0 km/h (5 Bft) NO22.5 50 0 min 10,3 klux 70 W/m
31.03.2016 16:44 10,2 C 11,9 C 9,6 C 53 % 1010,8 hPa 0,0 l/m 37,9 km/h (6 Bft) NO45 50 0 min 11,2 klux 77 W/m
31.03.2016 16:49 10,1 C 11,9 C 9,7 C 54 % 1010,8 hPa 0,0 l/m 35,6 km/h (5 Bft) NO22.5 55 0 min 12,5 klux 86 W/m
31.03.2016 16:54 10,1 C 11,9 C 9,7 C 55 % 1010,8 hPa 0,0 l/m 34,3 km/h (5 Bft) NO45 50 0 min 12,5 klux 86 W/m
31.03.2016 16:59 10,1 C 11,9 C 9,7 C 55 % 1010,8 hPa 0,0 l/m 32,5 km/h (5 Bft) NO45 40 0 min 13,8 klux 94 W/m
31.03.2016 17:04 10,1 C 12,1 C 9,7 C 55 % 1010,8 hPa 0,0 l/m 32,0 km/h (5 Bft) NO45 45 0 min 13,8 klux 94 W/m
31.03.2016 17:10 10,1 C 12,5 C 9,8 C 55 % 1009,8 hPa 0,0 l/m 38,8 km/h (6 Bft) NO22.5 45 0 min 13,8 klux 94 W/m
31.03.2016 17:14 10,2 C 12,8 C 9,7 C 56 % 1009,8 hPa 0,0 l/m 30,8 km/h (5 Bft) NO22.5 50 0 min 17,2 klux 118 W/m
31.03.2016 17:19 10,2 C 12,9 C 9,7 C 56 % 1009,8 hPa 0,0 l/m 25,1 km/h (4 Bft) NO22.5 45 0 min 16,6 klux 114 W/m
31.03.2016 17:24 10,3 C 13,0 C 9,7 C 57 % 1009,8 hPa 0,0 l/m 22,4 km/h (4 Bft) NO45 35 0 min 14,0 klux 96 W/m
31.03.2016 17:29 10,3 C 13,0 C 9,8 C 57 % 1009,8 hPa 0,0 l/m 25,0 km/h (4 Bft) NO22.5 40 0 min 12,7 klux 87 W/m
31.03.2016 17:35 10,3 C 12,7 C 9,7 C 56 % 1009,8 hPa 0,0 l/m 23,9 km/h (4 Bft) NO45 40 0 min 12,7 klux 87 W/m
31.03.2016 17:39 10,2 C 12,4 C 9,7 C 56 % 1009,8 hPa 0,0 l/m 29,3 km/h (5 Bft) NO22.5 35 0 min 11,8 klux 81 W/m
31.03.2016 17:44 10,2 C 12,4 C 9,7 C 57 % 1009,8 hPa 0,0 l/m 25,2 km/h (4 Bft) NO22.5 45 0 min 10,6 klux 73 W/m
31.03.2016 17:49 10,2 C 12,1 C 9,7 C 57 % 1009,8 hPa 0,0 l/m 20,1 km/h (4 Bft) NO22.5 40 0 min 10,0 klux 68 W/m
31.03.2016 17:54 10,2 C 12,0 C 9,7 C 57 % 1009,8 hPa 0,0 l/m 26,7 km/h (4 Bft) NO45 40 0 min 10,0 klux 68 W/m
31.03.2016 18:00 10,2 C 11,8 C 9,7 C 58 % 1009,8 hPa 0,0 l/m 25,8 km/h (4 Bft) NO45 50 0 min 9,2 klux 63 W/m
31.03.2016 18:04 10,2 C 11,9 C 9,7 C 58 % 1009,8 hPa 0,0 l/m 20,2 km/h (4 Bft) NO22.5 50 0 min 7,65 klux 52 W/m
31.03.2016 18:09 10,2 C 11,5 C 9,7 C 58 % 1009,8 hPa 0,0 l/m 24,2 km/h (4 Bft) NO45 40 0 min 6,87 klux 47 W/m
31.03.2016 18:14 10,1 C 11,1 C 9,7 C 58 % 1009,8 hPa 0,0 l/m 21,3 km/h (4 Bft) NO22.5 45 0 min 4,96 klux 34 W/m
31.03.2016 18:19 10,1 C 10,9 C 9,7 C 58 % 1009,8 hPa 0,0 l/m 22,0 km/h (4 Bft) NO45 45 0 min 4,05 klux 28 W/m
31.03.2016 18:24 10,0 C 10,5 C 9,7 C 58 % 1009,8 hPa 0,0 l/m 28,6 km/h (5 Bft) NO22.5 40 0 min 3,76 klux 26 W/m
31.03.2016 18:29 10,0 C 10,2 C 9,7 C 57 % 1009,8 hPa 0,0 l/m 24,4 km/h (4 Bft) NO22.5 50 0 min 3,76 klux 26 W/m
31.03.2016 18:34 10,0 C 10,1 C 9,7 C 58 % 1009,8 hPa 0,0 l/m 27,0 km/h (5 Bft) NO45 45 0 min 3,21 klux 22 W/m
31.03.2016 18:39 10,0 C 9,9 C 9,7 C 58 % 1009,8 hPa 0,0 l/m 25,5 km/h (4 Bft) NO22.5 50 0 min 2,97 klux 20 W/m
31.03.2016 18:44 10,0 C 9,8 C 9,7 C 58 % 1009,8 hPa 0,0 l/m 26,9 km/h (4 Bft) NO22.5 50 0 min 2,97 klux 20 W/m
31.03.2016 18:49 10,0 C 9,6 C 9,7 C 58 % 1009,8 hPa 0,0 l/m 26,6 km/h (4 Bft) NO22.5 50 0 min 2,38 klux 16 W/m
31.03.2016 18:54 10,0 C 9,6 C 9,7 C 58 % 1010,8 hPa 0,0 l/m 34,3 km/h (5 Bft) NO22.5 40 0 min 2,00 klux 14 W/m
31.03.2016 18:59 10,0 C 9,5 C 9,7 C 58 % 1010,8 hPa 0,0 l/m 24,2 km/h (4 Bft) NO45 40 0 min 1,63 klux 11 W/m
31.03.2016 19:04 10,0 C 9,3 C 9,8 C 59 % 1010,8 hPa 0,0 l/m 21,8 km/h (4 Bft) NO22.5 45 0 min 1,37 klux 9 W/m
31.03.2016 19:09 9,9 C 9,2 C 9,7 C 59 % 1010,8 hPa 0,0 l/m 17,5 km/h (3 Bft) NO22.5 55 0 min 1,07 klux 7 W/m
31.03.2016 19:14 9,9 C 9,1 C 9,7 C 59 % 1010,8 hPa 0,0 l/m 18,5 km/h (3 Bft) NO22.5 45 0 min 910 lux 6 W/m
31.03.2016 19:19 9,9 C 8,9 C 9,7 C 59 % 1010,8 hPa 0,0 l/m 20,0 km/h (4 Bft) NO22.5 55 0 min 910 lux 6 W/m
31.03.2016 19:24 9,9 C 8,9 C 9,6 C 58 % 1010,8 hPa 0,0 l/m 24,1 km/h (4 Bft) NO45 40 0 min 738 lux 5 W/m
31.03.2016 19:29 9,9 C 8,8 C 9,7 C 58 % 1010,8 hPa 0,0 l/m 17,6 km/h (3 Bft) NO22.5 35 0 min 629 lux 4 W/m
31.03.2016 19:34 9,9 C 8,4 C 9,7 C 59 % 1010,8 hPa 0,0 l/m 14,8 km/h (3 Bft) NO22.5 40 0 min 488 lux 3 W/m
31.03.2016 19:39 9,7 C 8,0 C 9,7 C 58 % 1010,8 hPa 0,0 l/m 23,6 km/h (4 Bft) NO67.5 50 0 min 488 lux 3 W/m
31.03.2016 19:44 9,5 C 7,8 C 9,7 C 58 % 1011,8 hPa 0,0 l/m 37,2 km/h (5 Bft) NO45 45 0 min 336 lux 2 W/m
31.03.2016 19:49 9,5 C 7,3 C 9,6 C 59 % 1011,8 hPa 0,0 l/m 16,0 km/h (3 Bft) N-NO22.5 25 0 min 336 lux 2 W/m
31.03.2016 19:54 9,3 C 7,2 C 9,6 C 59 % 1011,8 hPa 0,0 l/m 28,3 km/h (5 Bft) NO45 45 0 min 173 lux 1 W/m
31.03.2016 19:59 9,3 C 7,2 C 9,6 C 58 % 1011,8 hPa 0,0 l/m 36,4 km/h (5 Bft) NO22.5 35 0 min 173 lux 1 W/m
31.03.2016 20:04 9,2 C 6,8 C 9,6 C 57 % 1011,8 hPa 0,0 l/m 37,2 km/h (5 Bft) NO45 45 0 min 78 lux 0 W/m
31.03.2016 20:09 9,1 C 6,8 C 9,6 C 61 % 1011,8 hPa 0,0 l/m 18,6 km/h (3 Bft) NO45 45 0 min 78 lux 0 W/m
31.03.2016 20:14 9,0 C 6,9 C 9,6 C 62 % 1011,8 hPa 0,0 l/m 30,3 km/h (5 Bft) NO45 45 0 min 44 lux 0 W/m
31.03.2016 20:19 8,8 C 6,6 C 9,6 C 63 % 1011,8 hPa 0,0 l/m 21,3 km/h (4 Bft) O22.5 95 0 min 35 lux 0 W/m
31.03.2016 20:24 8,8 C 6,5 C 9,6 C 62 % 1011,8 hPa 0,0 l/m 21,1 km/h (4 Bft) O-NO45 70 0 min 15 lux 0 W/m
31.03.2016 20:29 8,6 C 6,5 C 9,6 C 63 % 1011,8 hPa 0,0 l/m 26,7 km/h (4 Bft) NO22.5 45 0 min 8 lux 0 W/m
31.03.2016 20:34 8,7 C 6,6 C 9,6 C 63 % 1011,8 hPa 0,0 l/m 25,8 km/h (4 Bft) NO45 45 0 min 8 lux 0 W/m
31.03.2016 20:39 8,7 C 6,6 C 9,6 C 64 % 1011,8 hPa 0,0 l/m 25,9 km/h (4 Bft) NO22.5 35 0 min 0 lux 0 W/m
31.03.2016 20:44 8,7 C 6,6 C 9,5 C 64 % 1011,8 hPa 0,0 l/m 28,7 km/h (5 Bft) NO22.5 40 0 min 0 lux 0 W/m
31.03.2016 20:49 8,6 C 6,6 C 9,5 C 64 % 1011,8 hPa 0,0 l/m 23,8 km/h (4 Bft) NO22.5 40 0 min 0 lux 0 W/m
31.03.2016 20:54 8,5 C 6,5 C 9,5 C 65 % 1011,8 hPa 0,0 l/m 15,5 km/h (3 Bft) N45 10 0 min 0 lux 0 W/m
31.03.2016 20:59 8,3 C 6,4 C 9,6 C 65 % 1011,8 hPa 0,0 l/m 15,1 km/h (3 Bft) NO22.5 40 0 min 0 lux 0 W/m
31.03.2016 21:04 8,4 C 6,4 C 9,5 C 66 % 1011,8 hPa 0,0 l/m 24,8 km/h (4 Bft) NO22.5 45 0 min 0 lux 0 W/m
31.03.2016 21:09 8,4 C 6,5 C 9,5 C 66 % 1011,8 hPa 0,0 l/m 30,8 km/h (5 Bft) NO45 45 0 min 0 lux 0 W/m
31.03.2016 21:15 8,4 C 6,4 C 9,5 C 65 % 1011,8 hPa 0,0 l/m 22,0 km/h (4 Bft) NO22.5 50 0 min 0 lux 0 W/m
31.03.2016 21:19 8,4 C 6,2 C 9,5 C 66 % 1011,8 hPa 0,0 l/m 20,5 km/h (4 Bft) NO45 55 0 min 0 lux 0 W/m
31.03.2016 21:24 8,4 C 6,3 C 9,5 C 65 % 1011,8 hPa 0,0 l/m 23,0 km/h (4 Bft) NO22.5 40 0 min 0 lux 0 W/m
31.03.2016 21:29 8,4 C 6,3 C 9,5 C 65 % 1011,8 hPa 0,0 l/m 23,9 km/h (4 Bft) NO22.5 55 0 min 0 lux 0 W/m
31.03.2016 21:34 8,4 C 6,1 C 9,5 C 66 % 1011,8 hPa 0,0 l/m 13,0 km/h (3 Bft) O-NO 70 0 min 0 lux 0 W/m
31.03.2016 21:40 8,1 C 6,1 C 9,5 C 67 % 1011,8 hPa 0,0 l/m 11,9 km/h (2 Bft) O 85 0 min 0 lux 0 W/m
31.03.2016 21:44 8,0 C 6,0 C 9,5 C 68 % 1011,8 hPa 0,0 l/m 15,0 km/h (3 Bft) O22.5 90 0 min 0 lux 0 W/m
31.03.2016 21:49 7,9 C 6,0 C 9,5 C 69 % 1011,8 hPa 0,0 l/m 19,6 km/h (3 Bft) O45 90 0 min 0 lux 0 W/m
31.03.2016 21:54 7,7 C 6,0 C 9,4 C 70 % 1011,8 hPa 0,0 l/m 22,3 km/h (4 Bft) O-SO67.5 105 0 min 0 lux 0 W/m
31.03.2016 21:59 7,7 C 5,9 C 9,4 C 70 % 1011,8 hPa 0,0 l/m 17,1 km/h (3 Bft) O-SO45 105 0 min 0 lux 0 W/m
31.03.2016 22:04 7,6 C 5,8 C 9,4 C 71 % 1011,8 hPa 0,0 l/m 20,6 km/h (4 Bft) O45 90 0 min 0 lux 0 W/m
31.03.2016 22:09 7,6 C 5,8 C 9,4 C 71 % 1011,8 hPa 0,0 l/m 17,6 km/h (3 Bft) O67.5 90 0 min 0 lux 0 W/m
31.03.2016 22:14 7,6 C 5,8 C 9,4 C 71 % 1011,8 hPa 0,0 l/m 14,8 km/h (3 Bft) O45 90 0 min 0 lux 0 W/m
31.03.2016 22:19 7,6 C 5,7 C 9,4 C 71 % 1011,8 hPa 0,0 l/m 16,1 km/h (3 Bft) O-NO22.5 70 0 min 0 lux 0 W/m
31.03.2016 22:24 7,6 C 5,7 C 9,5 C 71 % 1011,8 hPa 0,0 l/m 21,0 km/h (4 Bft) O-NO45 70 0 min 0 lux 0 W/m
31.03.2016 22:29 7,6 C 5,7 C 9,4 C 71 % 1011,8 hPa 0,0 l/m 17,3 km/h (3 Bft) O45 80 0 min 0 lux 0 W/m
31.03.2016 22:34 7,5 C 5,3 C 9,3 C 71 % 1011,8 hPa 0,0 l/m 15,9 km/h (3 Bft) O22.5 80 0 min 0 lux 0 W/m
31.03.2016 22:39 7,4 C 5,1 C 9,3 C 71 % 1011,8 hPa 0,0 l/m 19,4 km/h (3 Bft) O45 80 0 min 0 lux 0 W/m
31.03.2016 22:44 7,4 C 5,0 C 9,3 C 72 % 1011,8 hPa 0,0 l/m 11,3 km/h (2 Bft) O67.5 95 0 min 0 lux 0 W/m
31.03.2016 22:49 7,3 C 4,8 C 9,3 C 72 % 1011,8 hPa 0,0 l/m 14,8 km/h (3 Bft) O45 95 0 min 0 lux 0 W/m
31.03.2016 22:54 7,3 C 4,8 C 9,3 C 72 % 1011,8 hPa 0,0 l/m 21,1 km/h (4 Bft) O45 90 0 min 0 lux 0 W/m
31.03.2016 22:59 7,3 C 4,8 C 9,2 C 72 % 1011,8 hPa 0,0 l/m 18,6 km/h (3 Bft) O45 95 0 min 0 lux 0 W/m
31.03.2016 23:05 7,4 C 5,0 C 9,3 C 71 % 1011,8 hPa 0,0 l/m 10,3 km/h (2 Bft) O-NO45 75 0 min 0 lux 0 W/m
31.03.2016 23:09 7,3 C 5,0 C 9,3 C 71 % 1011,8 hPa 0,0 l/m 11,6 km/h (2 Bft) O-NO22.5 60 0 min 0 lux 0 W/m
31.03.2016 23:14 7,3 C 4,9 C 9,3 C 71 % 1011,8 hPa 0,0 l/m 6,6 km/h (2 Bft) O-NO 60 0 min 0 lux 0 W/m
31.03.2016 23:19 7,4 C 4,9 C 9,3 C 71 % 1011,8 hPa 0,0 l/m 13,9 km/h (3 Bft) NO22.5 55 0 min 0 lux 0 W/m
31.03.2016 23:24 7,4 C 5,2 C 9,3 C 71 % 1011,8 hPa 0,0 l/m 15,2 km/h (3 Bft) NO45 45 0 min 0 lux 0 W/m
31.03.2016 23:30 7,4 C 5,5 C 9,3 C 70 % 1011,8 hPa 0,0 l/m 18,0 km/h (3 Bft) NO22.5 50 0 min 0 lux 0 W/m
31.03.2016 23:34 7,5 C 5,5 C 9,3 C 70 % 1011,8 hPa 0,0 l/m 20,3 km/h (4 Bft) NO22.5 50 0 min 0 lux 0 W/m
31.03.2016 23:39 7,6 C 6,2 C 9,2 C 70 % 1011,8 hPa 0,0 l/m 22,3 km/h (4 Bft) N-NO22.5 25 0 min 0 lux 0 W/m
31.03.2016 23:44 7,6 C 6,5 C 9,2 C 70 % 1012,8 hPa 0,0 l/m 20,2 km/h (4 Bft) N-NO22.5 30 0 min 0 lux 0 W/m
31.03.2016 23:49 7,7 C 6,5 C 9,2 C 69 % 1012,8 hPa 0,0 l/m 17,6 km/h (3 Bft) N-NO22.5 15 0 min 0 lux 0 W/m
31.03.2016 23:55 7,6 C 6,6 C 9,2 C 69 % 1012,8 hPa 0,0 l/m 13,0 km/h (3 Bft) N22.5 10 0 min 0 lux 0 W/m
31.03.2016 23:59 7,6 C 6,6 C 9,2 C 69 % 1012,8 hPa 0,0 l/m 13,6 km/h (3 Bft) N22.5 10 0 min 0 lux 0 W/m
_ Min-Zeit 07:05 22:49 01:49 15:54 17:24 - 00:29 - - - - -
Minimum _ 6,8 C 4,8 C 9,1 C 51 % 1009,8 hPa - 0,0 km/h (0 Bft) - - - - -
_ Max-Zeit 13:59 13:49 00:20 06:24 23:44 00:50 17:10 - - 00:04 12:14 12:14
Maximum _ 10,3 C 16,9 C 10,0 C 84 % 1012,8 hPa 0,1 l/m 38,8 km/h
NO (6 Bft)
- - 0 min 24,6 klux 168 W/m
Durchschnitt _ 8,4 C 8,8 C 9,5 C 70 % 1011,2 hPa #0,7 l/m 13,6 km/h (3 Bft) NO - #0 min. 6,08 klux 78 W/m